Regional Weather Roundup
Issued by NWS State College, PA

Home | Current Version | Previous Version | Text Only | Print | Product List | Glossary On
Versions: 1 2 3 4 5 6 7 8 9 10 11 12 13 14 15 16 17 18 19 20 21 22 23 24 25 26 27 28 29 30 31 32 33 34 35 36 37 38 39 40 41 42 43 44 45 46 47 48 49 50
000
ASUS41 KCTP 220103
RWRCTP

REGIONAL WEATHER ROUNDUP
NATIONAL WEATHER SERVICE STATE COLLEGE PA
900 PM EDT SUN SEP 21 2014

Note: "fair" indicates few or no clouds below 12,000 feet with no
significant weather and/or obstructions to visibility.

* = STATION THAT DOES NOT REPORT PRECIPITATION /E.G. RAIN...SNOW...ETC/
    THUNDER OR FOG.

PAZ002>004-007>009-013>016-020>023-029>032-220200-
WESTERN PENNSYLVANIA

CITY           SKY/WX    TMP DP  RH WIND       PRES   REMARKS
ERIE           CLOUDY    60  52  74 W18G28    29.75R
MEADVILLE      LGT RAIN  56  53  90 W13G20    29.79R
FRANKLIN*      CLOUDY    57  48  72 W17G26    29.80R
NEW CASTLE     NOT AVBL
BEAVER COUNTY  NOT AVBL
BUTLER*        CLEAR     63  45  51 W9G21     29.82R
PITTSBURGH INT CLEAR     63  47  55 W20G26    29.81R
PITTSBURGH     CLEAR     64  45  49 NW9G26    29.80R
INDIANA*       CLEAR     64  50  59 NW14G20   29.82R
LATROBE        CLEAR     64  50  59 W6        29.80R
WASHINGTON CO* CLEAR     63  45  51 W7G18     29.84R
$$

PAZ004>006-010>012-017>019-024>028-033>037-041-042-045-046-049>053-220200-
CENTRAL PENNSYLVANIA

CITY           SKY/WX    TMP DP  RH WIND       PRES   REMARKS
BRADFORD       CLEAR     57  48  72 W8        29.74R
DUBOIS         CLEAR     58  52  80 W9        29.76R
CLEARFIELD     CLEAR     63  54  72 W12       29.74R
JOHNSTOWN      CLEAR     61  51  70 W16       29.79R
ALTOONA        CLEAR     67  54  63 NW13G22   29.75R
STATE COLLEGE  CLEAR     66  59  77 W10       29.71R
WILLIAMSPORT   TSTM      64  62  93 CALM      29.64R FOG
SELINSGROVE    MOCLDY    70  65  84 CALM      29.64R
FT INDIANTOWN  MOCLDY    68  68 100 VRB3      29.66R
CAPITAL CITY   LGT RAIN  71  67  87 W6        29.66R
HARRISBURG     CLOUDY    71  65  81 SW9       29.65R
YORK           CLOUDY    67  63  87 CALM      29.67F
$$

PAZ038>040-043-044-047-048-054-055-060>062-067>071-220200-
EASTERN PENNSYLVANIA

CITY           SKY/WX    TMP DP  RH WIND       PRES   REMARKS
SCRANTON       RAIN      64  61  90 CALM      29.67R FOG
MOUNT POCONO   PTCLDY    65  32  29 W5        29.68S
ALLENTOWN      CLEAR     66  58  75 SW5       29.63S
QUAKERTOWN*    CLEAR     68  63  83 CALM      29.65F
READING        MOCLDY    71  64  78 S5        29.63S
LANCASTER      MOCLDY    72  61  68 W33G41    29.69R THUNDER
COATESVILLE    CLEAR     68  59  73 SW3       29.67S
POTTSTOWN      CLEAR     71  61  70 CALM      29.66S
BLUE BELL      CLEAR     72  64  78 CALM      29.64S
DOYLESTOWN     PTCLDY    70  64  81 S5        29.64S
WILLOW GROVE   NOT AVBL
NORTH PHILA    MOCLDY    75  63  66 SW8       29.65F
PHILADELPHIA   MOCLDY    73  65  75 S6        29.65S
$$


USA.gov is the U.S. government's official web portal to all federal, state and local government web resources and services.